Regional Weather Roundup
Issued by NWS San Diego, CA

Home | Current Version | Previous Version | Text Only | Print | Product List | Glossary On
Versions: 1 2 3 4 5 6 7 8 9 10 11 12 13 14 15 16 17 18 19 20 21 22 23 24 25 26 27 28
000
ASUS46 KSGX 250911
RWRSGX

SAN DIEGO HOURLY WEATHER ROUNDUP
NATIONAL WEATHER SERVICE SAN DIEGO CA
200 AM PDT WED MAY 25 2016

NOTE: "FAIR" INDICATES FEW OR NO CLOUDS BELOW 12,000 FEET WITH NO
SIGNIFICANT WEATHER AND/OR OBSTRUCTIONS TO VISIBILITY.

CAZ042-043-060-061-PZZ750-775-251000-

GREATER SAN DIEGO AREA

CITY           SKY/WX    TMP DP  RH WIND       PRES   REMARKS
LINDBERGH FLD  MOCLDY    62  51  67 NE3       30.07F
POINT LOMA       N/A     60  52  75 NW10        N/A
NATIONAL CITY    N/A     61  54  77 CALM      30.07S
CHULA VISTA      N/A     60  55  81 NW1       29.99S
IMPERIAL BEACH PTCLDY    63  53  70 NW5       30.06F
BROWN FIELD    CLOUDY    59  53  80 CALM      30.05F
MIRAMAR MCAS   PTCLDY    55  48  77 E5        30.05F
MONTGOMERY FLD CLEAR     60  50  69 CALM      30.06F

$$

NORTH SAN DIEGO COUNTY

CITY           SKY/WX    TMP DP  RH WIND       PRES   REMARKS
CAMP PENDLETON MOCLDY    59  52  77 CALM      30.04F
OCEANSIDE AP   MOCLDY    59  51  75 CALM      30.04F
OCEANSIDE HBR    N/A     60  54  80 CALM      30.06F
VISTA            N/A     58  53  84 CALM      30.03F
CARLSBAD       CLOUDY    59  54  83 CALM      30.04F
DEL MAR          N/A     59  55  87 CALM      30.07F
LA JOLLA SCRIP   N/A     60  55  82 NW2       30.04F
FALLBROOK        N/A     56  55  96 CALM      30.03F
ESCONDIDO        N/A     59  53  80 CALM      30.06F
SAN MARCOS       N/A     58  49  74 CALM      30.03F
POWAY            N/A     56  50  78 CALM      30.07F

$$

EAST SAN DIEGO COUNTY

CITY           SKY/WX    TMP DP  RH WIND       PRES   REMARKS
RAMONA         CLOUDY    51  46  83 W5        30.05F
SANTEE LAKES     N/A     57  51  79 CALM      30.05F
LA MESA          N/A     58  52  82 CALM      29.99S
DESCANSO N       N/A     46  43  89 CALM      29.95F
MT. LAGUNA OBS   N/A     33  32  96 W5        29.63F WCI  29
CAMPO            N/A     47  42  83 CALM      30.02F

$$

ORANGE COUNTY AND THE LOS ANGELES BASIN

CITY           SKY/WX    TMP DP  RH WIND       PRES   REMARKS
JOHN WAYNE AP  CLEAR     59  50  72 CALM      30.04F
LAKE FOREST FR   N/A     53  47  80 CALM      29.95S
HUNTINGTON BCH   N/A     60  55  83 W1        30.07F
LOS ALAMITOS   CLOUDY    61  54  77 SW3       30.04F
FULLERTON      CLOUDY    61  51  70 SW3       30.04F
LONG BEACH     PTCLDY    60  53  77 NW6       30.04F
L.A. AP        MOCLDY    58  52  80 W6        30.04F
L.A. DOWNTOWN  PTCLDY    59  52  77 CALM      30.04F

$$

THE INLAND EMPIRE

CITY           SKY/WX    TMP DP  RH WIND       PRES   REMARKS
CORONA         CLOUDY    58  51  78 NW6       30.05
CHINO          CLOUDY    57  50  77 SW8       30.05F
ONTARIO        MOCLDY    56  49  77 W7        30.04F
RIVERSIDE AP   CLOUDY    57  50  77 W3        30.04F
MORENO VALLEY    N/A     55  53  95 CALM      28.14F
MARCH ARB      MOCLDY    55  52  88 NW6       30.03F
HORSETHIEF CYN   N/A     55  46  73 NW2       30.06F
PERRIS           N/A     55  51  89 NW3       30.04S
HEMET EAST       N/A     53  44  72 CALM      29.95S
FRENCH VALLEY  CLOUDY    57  50  77 S6        30.04F
TEMECULA         N/A     58  52  81 S3        30.02S

$$

SAN BERNARDINO AND RIVERSIDE COUNTY MOUNTAINS

CITY           SKY/WX    TMP DP  RH WIND       PRES   REMARKS
BIG BEAR AP    CLEAR     28  25  86 CALM      30.05F
ANGELUS OAKS     N/A     34  26  70 CALM      29.95F
PINE COVE        N/A     40   8  27 NW2       30.03F

$$

SOUTHERN DESERT INCLUDING THE COACHELLA VALLEY

CITY           SKY/WX    TMP DP  RH WIND       PRES   REMARKS
PALM SPRINGS   CLEAR     67  40  37 NW9G20    29.90F
THOUSAND PALMS   N/A     64  45  49 W24       29.88F
PALM DESERT      N/A     64  46  51 CALM      31.38R
THERMAL        CLEAR     66  44  45 NW15      29.88S
BLYTHE         CLEAR     63  48  58 S6        29.89R
IMPERIAL AP    CLEAR     65  42  43 W17       29.90F
EL CENTRO NAS  CLEAR     65  40  39 W20       29.92F
YUMA AZ        CLEAR     67  41  38 NW9       29.90
MEXICALI         N/A    N/A N/A N/A MISG        N/A

$$

UPPER DESERT

CITY           SKY/WX    TMP DP  RH WIND       PRES   REMARKS
VICTORVILLE AP CLEAR     50  43  76 CALM      30.00F
HESPERIA         N/A     49  43  79 W8        30.10F
PALMDALE       CLEAR     52  41  66 SW14      30.00F
LANCASTER      CLEAR     52  42  69 SW13      30.00F
EDWARDS AFB    CLEAR     51  42  69 SW14      29.96F
DAGGETT        CLEAR     58  41  53 NW14      29.95S
29 PALMS N     CLEAR     60  30  32 W8        30.00F
NEEDLES        CLEAR     72  33  24 W6        29.87F

$$

REGIONAL REPORTS

CITY           SKY/WX    TMP DP  RH WIND       PRES   REMARKS
SANTA BARBARA  CLEAR     55  51  86 CALM      30.03F
SANDBERG       PTCLDY    45  40  82 SW5       30.04F
LAS VEGAS NV   PTCLDY    66  32  28 S8        29.87S
PHOENIX AZ     CLEAR     71  26  18 SW6       29.89F
TIJUANA        MOCLDY    59  50  72 W8        30.08S
ENSENADA NW      N/A     58  32  37 N7        30.03F

$$

OFFSHORE ISLANDS

CITY           SKY/WX    TMP DP  RH WIND       PRES   REMARKS
CATALINA ARPT  MOCLDY    51  48  89 W7        30.06S
SAN NICOLAS IS MOCLDY   N/A N/A N/A W10       30.05F

$$

MARINE AND OFFSHORE BUOY REPORTS

STATION/POSITION SKY/WX   TEMP    WIND        PRES    SWELL
                          AIR SEA DIR/SP/G            HT/PER/DIR
                          (F)     (DEG/KT/KT) (MB)    (FT/S/D)
TANNER BANKS               61 62  300/ 12/ 14 1017.8F   2/240/15
S CLEMENTE BASIN           60 62  300/  8/ 10 1017.7F   2/220/16
SAN NICOLAS IS.               60                N/A     2/200/15
SO. S. ROSA ISLA           58 60  300/ 10/ 12 1017.6F   3/300/ 7
W. S. BARBARA CH           56 56  330/ 10/ 10 1017.3S   3/290/ 7
M. S. BARBARA CH           58 59  270/ 14/ 16 1017.8S
S. MONICA BASIN            59 63  280/ 12/ 14 1017.6F   2/250/15
S PEDRO CHANNEL               64                N/A
OCEANSIDE OFFSHR              65                N/A     2/210/15
TORREY PINES OTR              65                N/A     2/220/14
LA JOLLA 1                 62 67  310/  5/  6 1017.8S
SAN DIEGO BAY                 69              1018.2S
POINT LOMA SOUTH              66                N/A     2/210/14

$$





USA.gov is the U.S. government's official web portal to all federal, state and local government web resources and services.